Pagina principale
METAR-TAF:

METAR-TAF

Aeroporti :

Ferrara, Italia

latitudine: 44-50N, longitudine: 011-37E, altezza: 10 m

Osservazione

Il bollettino è stato emesso 2 ore e 30 minuti fa, alle 17:55 UTC
Vento 2 kt da ovest
Temperature 22°C
Umidità 69%
Pressione 1017 hPa
Visibilità 10 km o più
Nubi sparse ad un'altezza di 8000 ft

METAR: LIPF 241755Z 28002KT 9999 SCT080 22/16 Q1017 RMK SCT VIS MIN 9999

Ora: 22:25 (20:25 UTC)


TAF: mancante

Osservazioni e previsioni meteorologiche di più di 4000 aeroporti (messaggi METAR e TAF).

Le stazioni disponibili sono rappresentate dai dischi gialli e rossi sulla carta.

Puntare il mouse per vedere il nome della stazione.

Clicca sopra per visualizzare le osservazioni e previsioni meteorologiche.

Per cambiare la mappa : fare clic sui pulsanti verdi con una croce nera per ingrandire, il pulsante verde con un trattino per diminuire, o sulla freccia verde per le mappe adiacenti.


METAR-TAF: